SAS7977 ESSA-LOWS

Flight info

Callsign SAS7977
Flight time 1h 55m
Altitude 38000
Route NOSLI N850 ABAMA DCT BIKRU DCT UNRIG/N0441F390 DCT MAREM/N0438F380 DCT VESUB T106 NETES T700 BADIT BADIT2R
Aircraft A320/M-SDE3FGHIRWY/LB1

Departure

Time 2026-05-05 12:08
Airport Stockholm-Arlanda Airport (ESSA)

Arrival

Time 2026-05-05 14:03
Airport Salzburg Airport (LOWS)
Time Latitude Longitude Altitude Speed Heading
2026-05-05 11:37 59.65455 17.94298 126 ft 0 kts 301°
2026-05-05 11:38 59.65454 17.94298 128 ft 0 kts 301°
2026-05-05 11:54 59.65452 17.94305 128 ft 3 kts 302°
2026-05-05 11:54 59.65437 17.94349 123 ft 4 kts 310°
2026-05-05 11:54 59.65418 17.94385 123 ft 4 kts 330°
2026-05-05 11:54 59.65404 17.94398 123 ft 0 kts 346°
2026-05-05 12:01 59.65412 17.94394 128 ft 3 kts 346°
2026-05-05 12:01 59.65443 17.94379 125 ft 6 kts 346°
2026-05-05 12:01 59.65499 17.94375 122 ft 10 kts 10°
2026-05-05 12:02 59.65573 17.94367 126 ft 12 kts 345°
2026-05-05 12:02 59.65653 17.94329 123 ft 10 kts 349°
2026-05-05 12:02 59.65720 17.94268 123 ft 13 kts 306°
2026-05-05 12:02 59.65721 17.94117 121 ft 13 kts 257°
2026-05-05 12:03 59.65694 17.93908 116 ft 18 kts 256°
2026-05-05 12:03 59.65665 17.93671 113 ft 18 kts 255°
2026-05-05 12:03 59.65631 17.93409 109 ft 22 kts 256°
2026-05-05 12:03 59.65604 17.93201 109 ft 16 kts 256°
2026-05-05 12:04 59.65576 17.92975 109 ft 18 kts 255°
2026-05-05 12:04 59.65544 17.92723 107 ft 14 kts 256°
2026-05-05 12:04 59.65543 17.92559 105 ft 13 kts 301°
2026-05-05 12:04 59.65633 17.92480 102 ft 9 kts 343°
2026-05-05 12:05 59.65705 17.92442 104 ft 12 kts 346°
2026-05-05 12:05 59.65790 17.92432 105 ft 13 kts
2026-05-05 12:05 59.65886 17.92467 107 ft 14 kts
2026-05-05 12:05 59.65990 17.92507 109 ft 16 kts 12°
2026-05-05 12:06 59.66101 17.92543 111 ft 17 kts 10°
2026-05-05 12:06 59.66221 17.92586 115 ft 18 kts 10°
2026-05-05 12:06 59.66340 17.92630 119 ft 17 kts 10°
2026-05-05 12:06 59.66458 17.92654 121 ft 17 kts 353°
2026-05-05 12:07 59.66543 17.92602 123 ft 10 kts 340°
2026-05-05 12:07 59.66608 17.92519 124 ft 12 kts 301°
2026-05-05 12:07 59.66583 17.92371 122 ft 12 kts 213°
2026-05-05 12:07 59.66483 17.92320 122 ft 26 kts 191°
2026-05-05 12:08 59.66054 17.92163 117 ft 96 kts 190°
2026-05-05 12:08 59.65210 17.91851 110 ft 148 kts 194°
2026-05-05 12:08 59.64208 17.91490 624 ft 146 kts 194°
2026-05-05 12:08 59.63212 17.91136 1223 ft 145 kts 197°
2026-05-05 12:09 59.62214 17.90773 1817 ft 146 kts 198°
2026-05-05 12:09 59.61282 17.89873 2216 ft 157 kts 230°
2026-05-05 12:09 59.60639 17.88009 2557 ft 175 kts 243°
2026-05-05 12:09 59.59975 17.85806 2873 ft 198 kts 242°
2026-05-05 12:10 59.59231 17.83355 3284 ft 215 kts 242°
2026-05-05 12:10 59.58463 17.80791 4099 ft 222 kts 244°
2026-05-05 12:10 59.57710 17.77998 4587 ft 244 kts 245°
2026-05-05 12:10 59.56825 17.75066 5426 ft 254 kts 233°
2026-05-05 12:11 59.55486 17.72735 6335 ft 262 kts 214°
2026-05-05 12:11 59.53857 17.71065 7256 ft 265 kts 210°
2026-05-05 12:11 59.52202 17.69440 8195 ft 267 kts 210°
2026-05-05 12:11 59.50533 17.67809 9126 ft 269 kts 211°
2026-05-05 12:12 59.48855 17.66166 10001 ft 271 kts 211°
2026-05-05 12:12 59.47125 17.64463 10327 ft 293 kts 211°
2026-05-05 12:12 59.45245 17.62605 10675 ft 309 kts 211°
2026-05-05 12:12 59.43301 17.60700 11393 ft 313 kts 212°
2026-05-05 12:13 59.41346 17.58792 12221 ft 314 kts 213°
2026-05-05 12:13 59.39389 17.56885 13068 ft 314 kts 213°
2026-05-05 12:13 59.37428 17.54976 13880 ft 315 kts 214°
2026-05-05 12:13 59.35468 17.53066 14591 ft 315 kts 214°
2026-05-05 12:14 59.33503 17.51148 15304 ft 316 kts 214°
2026-05-05 12:14 59.31557 17.49252 15990 ft 317 kts 214°
2026-05-05 12:14 59.29580 17.47330 16668 ft 318 kts 214°
2026-05-05 12:14 59.27593 17.45400 17257 ft 321 kts 215°
2026-05-05 12:15 59.25581 17.43445 17878 ft 325 kts 215°
2026-05-05 12:15 59.23551 17.41474 18481 ft 328 kts 215°
2026-05-05 12:15 59.21497 17.39486 19067 ft 330 kts 214°
2026-05-05 12:15 59.19434 17.37491 19665 ft 333 kts 214°
2026-05-05 12:16 59.17349 17.35474 20278 ft 335 kts 214°
2026-05-05 12:16 59.15278 17.33474 20852 ft 338 kts 214°
2026-05-05 12:16 59.13158 17.31439 21418 ft 341 kts 214°
2026-05-05 12:16 59.11022 17.29390 21992 ft 344 kts 214°
2026-05-05 12:17 59.08868 17.27325 22546 ft 346 kts 214°
2026-05-05 12:17 59.06804 17.24972 23081 ft 342 kts 222°
2026-05-05 12:17 59.04959 17.22052 23583 ft 343 kts 225°
2026-05-05 12:17 59.03126 17.19078 24027 ft 345 kts 225°
2026-05-05 12:18 59.01296 17.16120 24372 ft 349 kts 225°
2026-05-05 12:18 58.99422 17.13099 24787 ft 351 kts 225°
2026-05-05 12:18 58.97537 17.10067 25211 ft 354 kts 225°
2026-05-05 12:18 58.95635 17.07018 25639 ft 356 kts 225°
2026-05-05 12:19 58.93722 17.03959 26055 ft 358 kts 225°
2026-05-05 12:19 58.91798 17.00880 26466 ft 360 kts 225°
2026-05-05 12:19 58.89865 16.97786 26866 ft 362 kts 225°
2026-05-05 12:19 58.87923 16.94680 27277 ft 364 kts 225°
2026-05-05 12:20 58.85969 16.91553 27673 ft 366 kts 225°
2026-05-05 12:20 58.84004 16.88416 28073 ft 368 kts 225°
2026-05-05 12:20 58.82054 16.85311 28442 ft 370 kts 225°
2026-05-05 12:20 58.80061 16.82150 28817 ft 372 kts 225°
2026-05-05 12:21 58.78058 16.78975 29129 ft 374 kts 224°
2026-05-05 12:21 58.76037 16.75774 29452 ft 378 kts 224°
2026-05-05 12:21 58.74003 16.72556 29812 ft 380 kts 224°
2026-05-05 12:21 58.71954 16.69322 30127 ft 382 kts 224°
2026-05-05 12:22 58.69892 16.66077 30428 ft 384 kts 224°
2026-05-05 12:22 58.67814 16.62817 30729 ft 386 kts 224°
2026-05-05 12:22 58.65753 16.59593 31001 ft 388 kts 224°
2026-05-05 12:22 58.63652 16.56314 31273 ft 390 kts 224°
2026-05-05 12:23 58.61544 16.53020 31598 ft 390 kts 224°
2026-05-05 12:23 58.59444 16.49741 31982 ft 389 kts 224°
2026-05-05 12:23 58.57346 16.46466 32390 ft 388 kts 224°
2026-05-05 12:23 58.55256 16.43204 32778 ft 387 kts 225°
2026-05-05 12:24 58.53165 16.39947 33084 ft 388 kts 224°
2026-05-05 12:24 58.51070 16.36696 33442 ft 388 kts 224°
2026-05-05 12:24 58.48976 16.33454 33826 ft 387 kts 224°
2026-05-05 12:24 58.46914 16.30262 34131 ft 387 kts 224°
2026-05-05 12:25 58.44819 16.27025 34421 ft 388 kts 224°
2026-05-05 12:25 58.42716 16.23780 34683 ft 389 kts 224°
2026-05-05 12:25 58.40603 16.20527 34932 ft 391 kts 224°
2026-05-05 12:25 58.38485 16.17267 35183 ft 392 kts 224°
2026-05-05 12:26 58.36359 16.13998 35423 ft 394 kts 224°
2026-05-05 12:26 58.34221 16.10718 35679 ft 395 kts 224°
2026-05-05 12:26 58.32077 16.07436 35920 ft 396 kts 223°
2026-05-05 12:26 58.29925 16.04147 36107 ft 398 kts 223°
2026-05-05 12:27 58.27765 16.00847 36328 ft 399 kts 223°
2026-05-05 12:27 58.25626 15.97583 36558 ft 400 kts 223°
2026-05-05 12:27 58.23454 15.94278 36782 ft 401 kts 223°
2026-05-05 12:27 58.21266 15.90960 36998 ft 402 kts 223°
2026-05-05 12:28 58.19078 15.87651 37229 ft 403 kts 223°
2026-05-05 12:28 58.16878 15.84327 37452 ft 404 kts 223°
2026-05-05 12:28 58.14680 15.81008 37666 ft 405 kts 223°
2026-05-05 12:28 58.12472 15.77681 37852 ft 406 kts 223°
2026-05-05 12:29 58.08042 15.71012 37893 ft 407 kts 223°
2026-05-05 12:29 58.03605 15.64360 37898 ft 408 kts 222°
2026-05-05 12:30 57.99052 15.58061 37901 ft 413 kts 213°
2026-05-05 12:30 57.93566 15.54423 37901 ft 423 kts 200°
2026-05-05 12:31 57.87864 15.51614 37908 ft 424 kts 200°
2026-05-05 12:31 57.82157 15.48803 37904 ft 424 kts 200°
2026-05-05 12:32 57.76489 15.46014 37902 ft 424 kts 200°
2026-05-05 12:32 57.70785 15.43211 37905 ft 424 kts 200°
2026-05-05 12:33 57.65071 15.40437 37908 ft 424 kts 200°
2026-05-05 12:33 57.59364 15.37660 37904 ft 424 kts 200°
2026-05-05 12:34 57.53725 15.34915 37873 ft 424 kts 200°
2026-05-05 12:34 57.47982 15.32140 37879 ft 424 kts 200°
2026-05-05 12:35 57.42268 15.29390 37884 ft 424 kts 200°
2026-05-05 12:35 57.36548 15.26645 37888 ft 424 kts 200°
2026-05-05 12:36 57.30869 15.23917 37887 ft 425 kts 200°
2026-05-05 12:36 57.25151 15.21169 37854 ft 425 kts 200°
2026-05-05 12:37 57.19425 15.18439 37873 ft 425 kts 200°
2026-05-05 12:37 57.13691 15.15714 37880 ft 426 kts 200°
2026-05-05 12:38 57.07949 15.13007 37887 ft 426 kts 200°
2026-05-05 12:38 57.02244 15.10337 37892 ft 426 kts 200°
2026-05-05 12:39 56.96498 15.07642 37869 ft 426 kts 199°
2026-05-05 12:39 56.90749 15.04948 37893 ft 426 kts 199°
2026-05-05 12:40 56.85002 15.02265 37902 ft 427 kts 199°
2026-05-05 12:40 56.79246 14.99589 37901 ft 427 kts 199°
2026-05-05 12:41 56.73534 14.96931 37884 ft 427 kts 199°
2026-05-05 12:41 56.67778 14.94265 37895 ft 427 kts 199°
2026-05-05 12:42 56.62020 14.91613 37905 ft 427 kts 199°
2026-05-05 12:42 56.56258 14.88963 37914 ft 427 kts 199°
2026-05-05 12:43 56.50495 14.86323 37915 ft 427 kts 199°
2026-05-05 12:43 56.44766 14.83709 37891 ft 428 kts 199°
2026-05-05 12:44 56.38994 14.81073 37904 ft 428 kts 199°
2026-05-05 12:44 56.33216 14.78450 37916 ft 428 kts 199°
2026-05-05 12:45 56.27427 14.75842 37917 ft 429 kts 199°
2026-05-05 12:45 56.21640 14.73241 37898 ft 429 kts 199°
2026-05-05 12:46 56.15889 14.70650 37919 ft 429 kts 199°
2026-05-05 12:46 56.10096 14.68042 37926 ft 429 kts 199°
2026-05-05 12:47 56.04296 14.65444 37934 ft 430 kts 198°
2026-05-05 12:47 55.98493 14.62864 37937 ft 430 kts 198°
2026-05-05 12:48 55.92692 14.60294 37928 ft 429 kts 198°
2026-05-05 12:48 55.86932 14.57748 37941 ft 429 kts 198°
2026-05-05 12:49 55.81139 14.55189 37944 ft 429 kts 198°
2026-05-05 12:49 55.75347 14.52637 37946 ft 429 kts 198°
2026-05-05 12:50 55.69560 14.50097 37926 ft 428 kts 198°
2026-05-05 12:50 55.63813 14.47575 37945 ft 428 kts 198°
2026-05-05 12:51 55.58036 14.45054 37950 ft 427 kts 198°
2026-05-05 12:51 55.52262 14.42546 37954 ft 427 kts 198°
2026-05-05 12:52 55.46490 14.40045 37956 ft 427 kts 198°
2026-05-05 12:52 55.40760 14.37565 37946 ft 427 kts 198°
2026-05-05 12:53 55.34994 14.35084 37952 ft 427 kts 198°
2026-05-05 12:53 55.29228 14.32616 37956 ft 427 kts 197°
2026-05-05 12:54 55.20304 14.30873 37963 ft 431 kts 190°
2026-05-05 12:55 55.15342 14.30049 37960 ft 431 kts 190°
2026-05-05 12:55 55.08400 14.28889 37961 ft 431 kts 190°
2026-05-05 12:56 55.02432 14.27894 37962 ft 431 kts 190°
2026-05-05 12:56 54.97469 14.27062 37961 ft 431 kts 190°
2026-05-05 12:57 54.91496 14.26066 37937 ft 431 kts 190°
2026-05-05 12:57 54.84554 14.24920 37938 ft 431 kts 190°
2026-05-05 12:58 54.79546 14.24096 37950 ft 432 kts 190°
2026-05-05 12:58 54.73603 14.23118 37960 ft 432 kts 190°
2026-05-05 12:59 54.67623 14.22124 37937 ft 432 kts 190°
2026-05-05 12:59 54.61637 14.21137 37950 ft 432 kts 190°
2026-05-05 13:00 54.52655 14.19694 37958 ft 432 kts 190°
2026-05-05 13:01 54.40717 14.17751 37942 ft 432 kts 190°
2026-05-05 13:01 54.34736 14.16782 37956 ft 432 kts 190°
2026-05-05 13:02 54.28753 14.15820 37960 ft 432 kts 190°
2026-05-05 13:02 54.22813 14.14863 37959 ft 432 kts 190°
2026-05-05 13:03 54.16834 14.13902 37942 ft 432 kts 190°
2026-05-05 13:03 54.10859 14.12945 37952 ft 431 kts 190°
2026-05-05 13:04 54.04891 14.12001 37957 ft 431 kts 190°
2026-05-05 13:04 53.98964 14.11062 37956 ft 431 kts 190°
2026-05-05 13:05 53.92998 14.10119 37954 ft 431 kts 190°
2026-05-05 13:05 53.87036 14.09176 37942 ft 430 kts 190°
2026-05-05 13:06 53.81079 14.08234 37948 ft 430 kts 190°
2026-05-05 13:06 53.75125 14.07294 37951 ft 430 kts 190°
2026-05-05 13:07 53.69215 14.06372 37948 ft 429 kts 190°
2026-05-05 13:07 53.63267 14.05450 37934 ft 429 kts 190°
2026-05-05 13:08 53.57325 14.04527 37943 ft 428 kts 190°
2026-05-05 13:08 53.51394 14.03598 37939 ft 427 kts 190°
2026-05-05 13:09 53.45516 14.02698 37937 ft 427 kts 190°
2026-05-05 13:09 53.39571 14.01776 37933 ft 429 kts 190°
2026-05-05 13:10 53.33625 14.00855 37932 ft 428 kts 190°
2026-05-05 13:10 53.27695 13.99939 37934 ft 427 kts 190°
2026-05-05 13:11 53.21817 13.99038 37933 ft 427 kts 190°
2026-05-05 13:11 53.15904 13.98135 37908 ft 427 kts 190°
2026-05-05 13:12 53.09980 13.97242 37894 ft 428 kts 190°
2026-05-05 13:12 53.04047 13.96354 37898 ft 428 kts 190°
2026-05-05 13:13 52.98148 13.95449 37904 ft 429 kts 190°
2026-05-05 13:13 52.92202 13.94546 37897 ft 429 kts 190°
2026-05-05 13:14 52.86251 13.93655 37879 ft 430 kts 189°
2026-05-05 13:14 52.80283 13.92760 37884 ft 431 kts 190°
2026-05-05 13:15 52.74311 13.91860 37892 ft 431 kts 190°
2026-05-05 13:15 52.68370 13.90969 37889 ft 431 kts 189°
2026-05-05 13:16 52.62389 13.90077 37885 ft 431 kts 189°
2026-05-05 13:16 52.56408 13.89196 37885 ft 432 kts 189°
2026-05-05 13:17 52.50427 13.88316 37881 ft 432 kts 189°
2026-05-05 13:17 52.44481 13.87442 37883 ft 432 kts 189°
2026-05-05 13:18 52.38496 13.86560 37871 ft 432 kts 190°
2026-05-05 13:18 52.32505 13.85679 37872 ft 432 kts 190°
2026-05-05 13:19 52.26521 13.84799 37880 ft 432 kts 190°
2026-05-05 13:19 52.20537 13.83921 37883 ft 432 kts 190°
2026-05-05 13:20 52.14593 13.83046 37877 ft 431 kts 190°
2026-05-05 13:20 52.08619 13.82176 37886 ft 431 kts 189°
2026-05-05 13:21 52.02643 13.81312 37888 ft 431 kts 189°
2026-05-05 13:21 51.96679 13.80450 37885 ft 430 kts 189°
2026-05-05 13:22 51.90760 13.79602 37865 ft 430 kts 189°
2026-05-05 13:22 51.84807 13.78754 37873 ft 429 kts 189°
2026-05-05 13:23 51.78862 13.77900 37876 ft 429 kts 189°
2026-05-05 13:23 51.72925 13.77048 37873 ft 428 kts 189°
2026-05-05 13:24 51.66998 13.76202 37870 ft 427 kts 189°
2026-05-05 13:24 51.61116 13.75364 37870 ft 427 kts 189°
2026-05-05 13:25 51.55211 13.74521 37868 ft 426 kts 189°
2026-05-05 13:25 51.49309 13.73690 37866 ft 425 kts 189°
2026-05-05 13:26 51.43414 13.72858 37854 ft 425 kts 189°
2026-05-05 13:26 51.37532 13.72019 37854 ft 424 kts 189°
2026-05-05 13:27 51.31695 13.71205 37853 ft 424 kts 189°
2026-05-05 13:27 51.25816 13.70387 37852 ft 424 kts 189°
2026-05-05 13:28 51.19945 13.69569 37847 ft 423 kts 189°
2026-05-05 13:28 51.14080 13.68748 37852 ft 423 kts 189°
2026-05-05 13:29 51.08252 13.67940 37854 ft 423 kts 189°
2026-05-05 13:29 51.02388 13.67119 37854 ft 423 kts 189°
2026-05-05 13:30 50.96522 13.66306 37841 ft 423 kts 189°
2026-05-05 13:30 50.90653 13.65499 37847 ft 423 kts 189°
2026-05-05 13:31 50.84818 13.64705 37849 ft 424 kts 189°
2026-05-05 13:31 50.78942 13.63908 37843 ft 424 kts 189°
2026-05-05 13:32 50.73073 13.63084 37835 ft 423 kts 191°
2026-05-05 13:32 50.67439 13.60810 37834 ft 417 kts 201°
2026-05-05 13:33 50.61907 13.58040 37830 ft 417 kts 200°
2026-05-05 13:33 50.56409 13.55321 37829 ft 417 kts 200°
2026-05-05 13:34 50.50874 13.52570 37817 ft 417 kts 200°
2026-05-05 13:34 50.45334 13.49834 37816 ft 418 kts 200°
2026-05-05 13:35 50.39787 13.47089 37808 ft 418 kts 200°
2026-05-05 13:35 50.34239 13.44348 37818 ft 418 kts 200°
2026-05-05 13:36 50.28718 13.41641 37813 ft 419 kts 200°
2026-05-05 13:36 50.23164 13.38915 37808 ft 419 kts 200°
2026-05-05 13:37 50.17602 13.36179 37803 ft 419 kts 200°
2026-05-05 13:37 50.12038 13.33460 37804 ft 419 kts 200°
2026-05-05 13:38 50.06514 13.30761 37801 ft 419 kts 200°
2026-05-05 13:38 50.00955 13.28048 37789 ft 419 kts 200°
2026-05-05 13:39 49.95381 13.25338 37801 ft 419 kts 200°
2026-05-05 13:39 49.89812 13.22646 37812 ft 419 kts 200°
2026-05-05 13:40 49.84276 13.19973 37808 ft 420 kts 200°
2026-05-05 13:40 49.78699 13.17291 37813 ft 420 kts 200°
2026-05-05 13:41 49.73118 13.14613 37823 ft 420 kts 200°
2026-05-05 13:41 49.67537 13.11935 37786 ft 420 kts 200°
2026-05-05 13:42 49.61952 13.09266 37777 ft 420 kts 200°
2026-05-05 13:42 49.56402 13.06618 37786 ft 420 kts 200°
2026-05-05 13:43 49.50811 13.03957 37770 ft 421 kts 200°
2026-05-05 13:43 49.48018 13.02628 37482 ft 420 kts 199°
2026-05-05 13:43 49.45226 13.01303 37192 ft 419 kts 199°
2026-05-05 13:44 49.42447 12.99962 36920 ft 418 kts 202°
2026-05-05 13:44 49.39824 12.98214 36581 ft 416 kts 207°
2026-05-05 13:44 49.37217 12.96302 35889 ft 416 kts 207°
2026-05-05 13:44 49.34600 12.94385 35173 ft 417 kts 207°
2026-05-05 13:45 49.31971 12.92468 34355 ft 420 kts 207°
2026-05-05 13:45 49.29323 12.90543 33446 ft 423 kts 207°
2026-05-05 13:45 49.26633 12.88705 32368 ft 424 kts 200°
2026-05-05 13:45 49.23751 12.87830 31188 ft 423 kts 185°
2026-05-05 13:46 49.20823 12.87671 30074 ft 419 kts 184°
2026-05-05 13:46 49.17931 12.87543 28867 ft 414 kts 183°
2026-05-05 13:46 49.15110 12.87430 27692 ft 408 kts 183°
2026-05-05 13:46 49.12288 12.87327 26799 ft 403 kts 183°
2026-05-05 13:47 49.09500 12.87223 26245 ft 399 kts 183°
2026-05-05 13:47 49.06734 12.87112 25682 ft 396 kts 183°
2026-05-05 13:47 49.03991 12.86999 25123 ft 393 kts 183°
2026-05-05 13:47 49.01268 12.86883 24576 ft 391 kts 182°
2026-05-05 13:48 48.98557 12.86765 24037 ft 389 kts 182°
2026-05-05 13:48 48.95853 12.86646 23491 ft 388 kts 182°
2026-05-05 13:48 48.93192 12.86537 22934 ft 387 kts 182°
2026-05-05 13:48 48.90514 12.86432 22419 ft 384 kts 182°
2026-05-05 13:49 48.87857 12.86330 21930 ft 380 kts 182°
2026-05-05 13:49 48.85221 12.86226 21450 ft 378 kts 182°
2026-05-05 13:49 48.82605 12.86117 20982 ft 375 kts 182°
2026-05-05 13:49 48.80010 12.86008 20508 ft 371 kts 182°
2026-05-05 13:50 48.77436 12.85902 20036 ft 368 kts 182°
2026-05-05 13:50 48.74884 12.85795 19559 ft 365 kts 182°
2026-05-05 13:50 48.72352 12.85689 19073 ft 363 kts 182°
2026-05-05 13:50 48.69874 12.85589 18588 ft 360 kts 182°
2026-05-05 13:51 48.67377 12.85488 18090 ft 358 kts 182°
2026-05-05 13:51 48.64895 12.85387 17530 ft 355 kts 182°
2026-05-05 13:51 48.62439 12.85285 17015 ft 352 kts 182°
2026-05-05 13:51 48.60000 12.85183 16498 ft 349 kts 182°
2026-05-05 13:52 48.57582 12.85086 15986 ft 347 kts 182°
2026-05-05 13:52 48.55181 12.84992 15472 ft 344 kts 182°
2026-05-05 13:52 48.52796 12.84896 14953 ft 342 kts 182°
2026-05-05 13:52 48.50421 12.84799 14445 ft 340 kts 182°
2026-05-05 13:53 48.48090 12.84703 13929 ft 339 kts 182°
2026-05-05 13:53 48.45733 12.84609 13399 ft 338 kts 182°
2026-05-05 13:53 48.43387 12.84516 12859 ft 337 kts 182°
2026-05-05 13:53 48.41049 12.84424 12349 ft 335 kts 182°
2026-05-05 13:54 48.38732 12.84333 11834 ft 332 kts 182°
2026-05-05 13:54 48.36427 12.84241 11325 ft 330 kts 182°
2026-05-05 13:54 48.34137 12.84145 10806 ft 328 kts 182°
2026-05-05 13:54 48.31861 12.84050 10324 ft 326 kts 182°
2026-05-05 13:55 48.29635 12.83959 10168 ft 314 kts 182°
2026-05-05 13:55 48.27494 12.83873 10044 ft 302 kts 182°
2026-05-05 13:55 48.25459 12.83791 9928 ft 291 kts 182°
2026-05-05 13:55 48.23466 12.83710 9803 ft 282 kts 182°
2026-05-05 13:56 48.21513 12.83626 9685 ft 280 kts 182°
2026-05-05 13:56 48.19563 12.83545 9305 ft 284 kts 182°
2026-05-05 13:56 48.17582 12.83465 8993 ft 281 kts 182°
2026-05-05 13:56 48.15656 12.83684 8424 ft 278 kts 169°
2026-05-05 13:57 48.13777 12.84368 7712 ft 278 kts 167°
2026-05-05 13:57 48.11893 12.85060 6988 ft 279 kts 168°
2026-05-05 13:57 48.09992 12.85752 6272 ft 282 kts 167°
2026-05-05 13:57 48.08116 12.86433 5722 ft 276 kts 167°
2026-05-05 13:58 48.06309 12.87087 5537 ft 258 kts 167°
2026-05-05 13:58 48.04630 12.87695 5426 ft 241 kts 167°
2026-05-05 13:58 48.03034 12.88274 5314 ft 230 kts 167°
2026-05-05 13:58 48.01510 12.88825 5218 ft 221 kts 167°
2026-05-05 13:59 47.98606 12.89326 5034 ft 202 kts 180°
2026-05-05 13:59 47.97207 12.89378 4940 ft 201 kts 175°
2026-05-05 14:00 47.94552 12.90734 4374 ft 204 kts 157°
2026-05-05 14:00 47.93259 12.91560 4126 ft 201 kts 157°
2026-05-05 14:00 47.91979 12.92375 3839 ft 199 kts 159°
2026-05-05 14:00 47.90711 12.93182 3575 ft 198 kts 159°
2026-05-05 14:01 47.89451 12.93982 3321 ft 194 kts 158°
2026-05-05 14:01 47.88245 12.94748 3079 ft 184 kts 159°
2026-05-05 14:01 47.87096 12.95477 2856 ft 177 kts 158°
2026-05-05 14:01 47.85985 12.96182 2628 ft 169 kts 159°
2026-05-05 14:02 47.84929 12.96852 2401 ft 160 kts 160°
2026-05-05 14:02 47.83950 12.97473 2239 ft 151 kts 160°
2026-05-05 14:02 47.82996 12.98077 2038 ft 148 kts 159°
2026-05-05 14:02 47.82066 12.98665 1847 ft 144 kts 158°
2026-05-05 14:03 47.81152 12.99243 1650 ft 143 kts 156°
2026-05-05 14:03 47.80222 12.99832 1461 ft 146 kts 155°
2026-05-05 14:03 47.79396 13.00351 1423 ft 86 kts 157°
2026-05-05 14:03 47.79155 13.00442 1420 ft 12 kts 210°
2026-05-05 14:04 47.79123 13.00380 1420 ft 1 kts 252°
2026-05-05 14:04 47.79116 13.00344 1421 ft 6 kts 250°
2026-05-05 14:04 47.79078 13.00304 1420 ft 8 kts 186°
2026-05-05 14:04 47.79018 13.00326 1420 ft 10 kts 158°
2026-05-05 14:05 47.78970 13.00317 1421 ft 4 kts 224°
2026-05-05 14:05 47.78960 13.00278 1422 ft 6 kts 253°
2026-05-05 14:05 47.78957 13.00204 1422 ft 8 kts 276°
2026-05-05 14:05 47.78995 13.00132 1422 ft 10 kts 333°
2026-05-05 14:06 47.79065 13.00087 1422 ft 12 kts 337°
2026-05-05 14:06 47.79151 13.00032 1422 ft 15 kts 336°
2026-05-05 14:06 47.79209 12.99995 1422 ft 8 kts 337°
2026-05-05 14:06 47.79235 13.00004 1422 ft 1 kts 79°
2026-05-05 14:07 47.79237 13.00023 1422 ft 0 kts 92°
2026-05-05 14:07 47.79237 13.00038 1422 ft 3 kts 91°
2026-05-05 14:07 47.79234 13.00065 1422 ft 3 kts 100°
2026-05-05 14:07 47.79233 13.00077 1422 ft 0 kts 101°
2026-05-05 14:08 47.79232 13.00083 1422 ft 0 kts 101°
2026-05-05 14:08 47.79232 13.00084 1422 ft 0 kts 101°